ONEWEB-0050, 45453

Orbit data source: Space-Track

ONEWEB-0050, 45453 is a payload satellite owned by One Web (UK) in LEO that was launched on Sat, 21 Mar 2020 UTC via a SOYUZ-2-1B launch vehicle from the Tyuratam Missile And Space Complex (TTMTR). Payload-class satellites include a variety of spacecraft equipped with specific instruments for various scientific and technological missions. These include communications satellites like Starlink; space stations such as the ISS; scientific satellites like the Hubble; Earth observation satellites from companies like Planet Labs, Umbra, and HawkEye 360; GPS; miniature CubeSats for education and research; and military/defense satellites.

Loading next visibility...
Identifier
45453, 2020-020AF
Orbit
LEO
Country
Flag of UKUK
Related business
Manufacturer
One Web
Mission
Partially operational Commercial Communications
Bus & Motor
ARROW, Unknown motor
Mass
148 kg wet, ~140 kg dry
Launch date (UTC)
2020-03-21 (6 years ago)
Launch vehicle
SOYUZ-2-1B
Launch site
Tyuratam Missile And Space Complex (TTMTR)
Object type
Payload
Rocket body
Debris
Shape & HBR
Trap Box + 2 Pan, 6.7 m
Radar Cross Section
3.464 m², Large (>1 m²)

Expand to show TLE details & history
Last TLE update: 2 days ago

TLE from 2 days ago
0 ONEWEB-0050
1 45453U 20020AF  26171.43244231  .00001697  00000-0  17218-3 0  9990
2 45453  88.9296 232.7702 0002631  18.4240 341.7084 14.90391874340863
Epoch: 2026-06-20T10:22Z
TLE epoch observation values (Epoch: 2026-06-20T10:22:43.015Z)
Latitude
-0.00002°
Longitude
168.44382°
Altitude
598.123 km
Speed
7.562 km/s
True Right ascension
15h 31m 04s
True Declination
0° 00' 00"
Sunlit
Object was in full shadow at epoch
Visualization orbit readout
Latitude
Unknown
Longitude
Unknown
Altitude
Unknown
Speed
Unknown
Apparent Right ascension
Unknown
Apparent Declination
Unknown
Sunlit
N/A
Visualization observer readout
Local Sidereal Time
21:37:03
Azimuth
Unknown
Elevation
Unknown
Doppler factor
Unknown
Orbital elements
Apogee altitude
595.399 km
Perigee altitude
591.73 km
Semi-major axis
6,971.701 km
Eccentricity
0.00026
Inclination
88.9296°
RAAN
232.7702°
Arg. of periapsis
18.424°
True anomaly
341.69893°
Mean anomaly
341.7084°
Eccentric anomaly
341.70367°
Mean motion
3.72851 °/min
Orbital period
96.55 mins
BSTAR
0.00017218
Loading maneuver chart data...
Computing Atmospheric mass density...
Loading historical data...
Loading historical data...
Loading historical data...
Loading historical data...
Loading historical data...
Loading historical data...
Loading historical data...

Documentation

Showing up to 5 results
|